TimeCST,TemperatureF,Dew PointF,Humidity,Sea Level PressureIn,VisibilityMPH,Wind Direction,Wind SpeedMPH,Gust SpeedMPH,PrecipitationIn,Events,Conditions,WindDirDegrees,DateUTC
12:53 AM,44.1,30.0,58,29.89,10.0,SE,9.2,-,N/A,,Clear,130,2012-12-06 06:53:00
1:53 AM,43.0,30.9,62,29.88,10.0,SE,6.9,-,N/A,,Clear,130,2012-12-06 07:53:00
2:53 AM,43.0,30.9,62,29.88,10.0,Calm,Calm,-,N/A,,Clear,0,2012-12-06 08:53:00
3:53 AM,39.9,30.0,68,29.86,10.0,SSE,4.6,-,N/A,,Clear,150,2012-12-06 09:53:00
4:53 AM,39.0,30.0,70,29.85,10.0,Calm,Calm,-,N/A,,Clear,0,2012-12-06 10:53:00
5:53 AM,34.0,26.1,73,29.87,10.0,NNW,4.6,-,N/A,,Clear,340,2012-12-06 11:53:00
6:53 AM,33.1,25.0,72,29.89,10.0,North,4.6,-,N/A,,Clear,360,2012-12-06 12:53:00
7:53 AM,33.1,25.0,72,29.90,10.0,North,4.6,-,N/A,,Clear,360,2012-12-06 13:53:00
8:53 AM,42.1,27.0,55,29.89,10.0,Calm,Calm,-,N/A,,Clear,0,2012-12-06 14:53:00
9:53 AM,54.0,30.9,41,29.88,10.0,NNW,3.5,-,N/A,,Clear,330,2012-12-06 15:53:00
10:53 AM,66.9,30.9,26,29.86,10.0,WNW,9.2,-,N/A,,Clear,290,2012-12-06 16:53:00
11:53 AM,72.0,28.9,20,29.83,10.0,WSW,11.5,-,N/A,,Clear,240,2012-12-06 17:53:00
12:53 PM,75.0,28.0,18,29.78,10.0,West,11.5,-,N/A,,Clear,280,2012-12-06 18:53:00
1:53 PM,79.0,25.0,14,29.75,10.0,WSW,11.5,-,N/A,,Clear,250,2012-12-06 19:53:00
2:53 PM,80.1,25.0,13,29.73,10.0,WSW,8.1,-,N/A,,Clear,250,2012-12-06 20:53:00
3:53 PM,80.1,23.0,12,29.73,10.0,WSW,8.1,-,N/A,,Clear,250,2012-12-06 21:53:00
4:53 PM,79.0,21.9,12,29.72,10.0,West,4.6,-,N/A,,Clear,270,2012-12-06 22:53:00
5:53 PM,73.9,24.1,16,29.74,10.0,Calm,Calm,-,N/A,,Clear,0,2012-12-06 23:53:00
6:53 PM,63.0,24.1,23,29.77,10.0,Calm,Calm,-,N/A,,Clear,0,2012-12-07 00:53:00
7:53 PM,60.1,23.0,24,29.79,9.0,West,10.4,-,N/A,,Clear,280,2012-12-07 01:53:00
8:53 PM,57.9,23.0,26,29.80,10.0,Calm,Calm,-,N/A,,Clear,0,2012-12-07 02:53:00
9:53 PM,52.0,21.9,31,29.79,10.0,North,6.9,-,N/A,,Clear,350,2012-12-07 03:53:00
10:53 PM,48.9,19.9,32,29.78,10.0,South,3.5,-,N/A,,Clear,180,2012-12-07 04:53:00
11:53 PM,48.0,19.9,33,29.76,10.0,North,3.5,-,N/A,,Clear,350,2012-12-07 05:53:00